AO-07 1 07530U 74089B 26235.51561395 -.00000033 00000-0 82588-4 0 9998 2 07530 101.9921 249.4661 0012266 4.7234 162.0747 12.53699182368953 UO-11 1 14781U 84021B 26235.13665590 .00001277 00000-0 13508-3 0 9996 2 14781 97.8126 199.9939 0006825 334.0789 26.0087 14.90938260267101 LO-19 1 20442U 90005G 26235.50831170 .00000072 00000-0 42285-4 0 9993 2 20442 98.8842 259.1639 0011737 14.2970 345.8543 14.34139286912049 AO-27 1 22825U 93061C 26235.40606589 .00000049 00000-0 35696-4 0 9990 2 22825 98.6829 302.7774 0007246 261.7888 98.2473 14.30956817716610 FO-29 1 24278U 96046B 26234.99810505 -.00000005 00000-0 34201-4 0 9992 2 24278 98.5190 74.7120 0348806 283.1085 73.1351 13.53276958482209 GO-32 1 25397U 98043D 26235.42714396 .00000048 00000-0 41014-4 0 9990 2 25397 99.0127 229.8989 0002014 53.1206 307.0157 14.24439379460905 ISS 1 25544U 98067A 26235.53239059 .00008992 00000-0 16763-3 0 9998 2 25544 51.6331 326.7717 0007704 75.9661 284.2184 15.49588782582197 NO-44 1 26931U 01043C 26235.55960046 .00000073 00000-0 58196-4 0 9995 2 26931 67.0496 70.0128 0005646 270.2157 89.8298 14.31977112300090 SO-50 1 27607U 02058C 26235.51729382 .00000792 00000-0 11077-3 0 9999 2 27607 64.5513 280.6475 0073150 250.1180 109.2034 14.83172591274444 CO-55 1 27844U 03031E 26235.47433543 .00000224 00000-0 11577-3 0 9995 2 27844 98.6765 243.1950 0009455 357.8963 2.2174 14.24370673201259 RS-22 1 27939U 03042A 26235.64713036 .00001040 00000-0 16799-3 0 9997 2 27939 98.3491 61.9266 0012440 57.9524 30.3976 14.73571081225485 CO-65 1 32785U 08021C 26235.58732684 .00003911 00000-0 24473-3 0 9994 2 32785 97.8336 218.4594 0009476 149.4015 210.7768 15.09990469995361 CO-66 1 32791U 08021J 26235.46122144 .00016065 00000-0 47737-3 0 9994 2 32791 97.7556 236.6943 0004784 82.8604 277.3182 15.34847097997606 RS-30 1 32953U 08025A 26235.61960030 -.00000024 00000-0 -24261-3 0 9996 2 32953 82.5064 313.5023 0020171 161.6319 198.5494 12.43181975828070 SRMSAT 1 37841U 11058D 26235.59311273 .00000370 00000-0 56985-4 0 9994 2 37841 19.9733 11.4688 0011614 225.7019 223.0508 14.11587984767350 ZACUBE-1 1 39417U 13066B 26235.32120000 .00004988 00000-0 38235-3 0 9999 2 39417 97.8033 197.9787 0042035 28.2807 332.0686 15.01596157690806 Delfi-N3xt 1 39428U 13066N 26234.75500590 .00006048 00000-0 51838-3 0 9996 2 39428 97.8292 155.0224 0073329 346.6694 13.2588 14.95824522684575 GOMX-1 1 39430U 13066Q 26235.59399653 .00001738 00000-0 26599-3 0 9995 2 39430 97.6455 71.8082 0127101 220.4349 138.7359 14.69626550679810 LO-74 1 39440U 13066AA 26235.30744609 .00001771 00000-0 16589-3 0 9995 2 39440 97.8943 184.6059 0057335 163.2055 197.1080 14.94150347687016 AO-73 1 39444U 13066AE 26235.38803397 .00006760 00000-0 41071-3 0 9994 2 39444 97.8341 208.2997 0034874 338.1701 21.8039 15.10319621689807 DTUSAT-2 1 40030U 14033W 26235.45636503 .00005495 00000-0 29163-3 0 9995 2 40030 98.0902 237.5082 0008153 19.1780 340.9756 15.15778156662876 LILACSAT-2 1 40908U 15049K 26235.56137873 .00016644 00000-0 26269-3 0 9997 2 40908 97.4599 275.0450 0006697 24.6751 335.4821 15.53570735606203 Lapan A3 1 41603U 16040E 26235.60591926 .00002683 00000-0 85084-4 0 9999 2 41603 97.1543 229.5722 0011648 127.2009 233.0299 15.33477494565141 CAS-2T 1 41847U 16066G 26235.48645100 .00000420 00000-0 69173-4 0 9995 2 41847 98.3780 310.4522 0340091 285.4098 70.9768 14.44812684514516 TechnoSat 1 42829U 17042E 26234.39813670 .00002620 00000-0 18697-3 0 9997 2 42829 97.4353 29.5837 0016543 224.6549 135.3346 15.05275528496669 AO-91 1 43017U 17073E 26235.52840941 .00007764 00000-0 33024-3 0 9993 2 43017 97.4607 101.3696 0149823 95.8564 265.9768 15.13578691475577 S-Net D 1 43186U 18014G 26235.54658350 .00004353 00000-0 22219-3 0 9994 2 43186 97.5279 139.9149 0009245 135.4913 224.7064 15.17208205468975 S-Net B 1 43187U 18014H 26235.49344180 .00004179 00000-0 21362-3 0 9996 2 43187 97.5282 139.8505 0009930 132.0341 228.1739 15.17175271468966 S-Net A 1 43188U 18014J 26235.14938203 .00004268 00000-0 21787-3 0 9994 2 43188 97.5294 139.7305 0009789 133.7612 226.4433 15.17212968468910 S-Net C 1 43189U 18014K 26235.49772104 .00004147 00000-0 21202-3 0 9997 2 43189 97.5312 140.1618 0011318 127.1737 233.0532 15.17165358467510 Ten-Koh 1 43677U 18084G 26235.49462450 .00002456 00000-0 18657-3 0 9997 2 43677 98.0747 70.7007 0008644 251.8301 108.1982 15.03169880426278 PO-101 1 43678U 18084H 26235.58559616 .00001188 00000-0 99005-4 0 9997 2 43678 98.1209 74.7599 0010481 308.6241 51.4042 15.00669731426329 QO-100 1 43700U 18090A 26235.55450546 .00000141 00000-0 00000-0 0 9990 2 43700 0.0164 127.7254 0002412 52.6458 16.8790 1.00270812 28354 MinXSS-2 1 43758U 18099A 26234.94432550 .00038441 00000-0 64973-3 0 9995 2 43758 97.4482 313.3930 0006213 31.4197 328.7425 15.51489832424469 AO-95 1 43770U 18099N 26235.62251427 .00010047 00000-0 36991-3 0 9998 2 43770 97.4333 295.6603 0010136 107.9674 252.2671 15.27999716423514 SNUSat 2 1 43782U 18099AA 26235.57671534 .00007009 00000-0 30270-3 0 9998 2 43782 97.4011 287.9466 0011519 65.3232 294.9202 15.22751949423280 SnugLite 1 43784U 18099AC 26235.14346310 .00009554 00000-0 34733-3 0 9999 2 43784 97.3823 288.8053 0004221 71.0722 289.0975 15.28465545423545 ITASat 1 1 43786U 18099AE 26235.58981988 .00005316 00000-0 25087-3 0 9999 2 43786 97.3982 285.7699 0014021 114.5474 245.7225 15.19789707423143 EAGLET 1 1 43790U 18099AJ 26235.57008068 .00003140 00000-0 17931-3 0 9994 2 43790 97.4182 283.4528 0012673 110.2979 249.9616 15.13374370422522 ESEO 1 43792U 18099AL 26235.02936665 .00001326 00000-0 98878-4 0 9993 2 43792 97.3943 269.5478 0013861 103.7198 256.5573 15.04421194421855 JO-97 1 43803U 18099AX 26235.12409967 .00016465 00000-0 47682-3 0 9993 2 43803 97.4079 298.2655 0006189 47.3203 312.8561 15.35634912423897 Suomi 100 1 43804U 18099AY 26235.41102571 .00010094 00000-0 35130-3 0 9994 2 43804 97.4135 295.6008 0010650 50.6036 309.6145 15.29837450423698 ISAT 1 43879U 18111D 26234.78628198 .00205127 00000-0 99713-3 0 9998 2 43879 97.5804 175.8756 0008059 100.6872 259.5304 15.81832382421636 UWE-4 1 43880U 18111E 26235.56514331 .00035823 00000-0 63432-3 0 9993 2 43880 97.5815 167.2621 0009961 83.7556 276.4829 15.50154831421204 Sparrow 1 43881U 18111F 26228.98401838 .16116594 28263-5 19760-3 0 9992 2 43881 97.5857 177.1140 0010462 202.8700 157.2139 16.49385238421037 Prox-1 1 44339U 19036A 26235.63515025 .00012002 00000-0 11261-2 0 9995 2 44339 23.9957 23.1798 0006184 93.7499 266.3708 14.92018258383556 Taurus 1 1 44530U 19059C 26235.58706832 .00004023 00000-0 63889-3 0 9993 2 44530 98.6479 44.6550 0009691 100.6460 259.5837 14.72704343368569 TO-108 1 44881U 19093C 26235.62444076 .00001316 00000-0 15427-3 0 9991 2 44881 97.7483 306.1977 0012380 220.6213 139.4080 14.86608740361434 RS-44 1 44909U 19096E 26235.16139481 .00000014 00000-0 15556-4 0 9993 2 44909 82.5214 295.2090 0217176 348.0862 11.5146 12.79748839310912 SALSAT 1 46495U 20068K 26234.90992220 .00006897 00000-0 23536-3 0 9996 2 46495 97.8881 242.0895 0011239 72.5473 287.6994 15.30634342325562 CSS (TIANHE-1) 1 48274U 21035A 26235.49167945 .00015233 00000-0 19266-3 0 9990 2 48274 41.4684 273.4428 0001587 254.2728 105.7935 15.59190448303670 TeikyoSat 4 1 49396U 21102B 26235.00137740 .00001459 00000-0 94151-4 0 9990 2 49396 97.3650 261.8864 0013547 66.5209 293.7443 15.09709370262807 Z-Sat 1 49399U 21102E 26235.61024062 .00005243 00000-0 25485-3 0 9990 2 49399 97.3301 268.8922 0016948 18.3176 341.8665 15.18721004263676 KOSEN 1 1 49402U 21102H 26234.64278551 .00006088 00000-0 22736-3 0 9995 2 49402 97.3148 275.5297 0012466 339.7867 20.2877 15.27670650264166 HO-113 1 50466U 21131B 26235.59815913 .00000410 00000-0 14018-3 0 9990 2 50466 98.4974 327.6227 0002889 251.1965 108.8910 14.41409746244826 SNUGLITE 2 1 52899U 22065F 26235.19739237 .00000795 00000-0 15929-3 0 9997 2 52899 98.2293 19.9476 0007793 164.3154 195.8292 14.64451362220808 UmKA 1 (RS40S) 1 57172U 23091G 26235.58519096 .00005029 00000-0 22653-3 0 9995 2 57172 97.4999 294.0332 0011038 239.8066 120.2077 15.21471169174256 CubeBel-2 (EU11S) 1 57175U 23091K 26235.61594708 .00011840 00000-0 40198-3 0 9997 2 57175 97.4999 299.4870 0008225 227.8893 132.1650 15.30626344174610 RS-38S 1 57189U 23091Z 26235.59427196 .00015620 00000-0 42004-3 0 9993 2 57189 97.5042 306.5077 0007133 176.0733 184.0568 15.37956121175047 SONATE-2 1 59112U 24043Q 26235.18008488 .00042584 00000-0 45492-3 0 9996 2 59112 97.5591 29.9791 0004749 314.4901 45.5969 15.63793371138341 GRBBeta 1 60237U 24128C 26235.30921261 .00003413 00000-0 23840-3 0 9998 2 60237 61.9918 340.6930 0031197 149.4091 210.8830 15.07053559116389 Curium One 1 60242U 24128H 26235.51750288 .00006811 00000-0 38793-3 0 9994 2 60242 61.9799 327.1424 0030072 145.1501 215.1572 15.13379670116642 ROBUSTA-3A 1 60243U 24128J 26235.25679720 .00006418 00000-0 37489-3 0 9991 2 60243 61.9879 330.9172 0032096 142.0302 218.3066 15.12494110116567 CatSat 1 60246U 24125J 26235.04408835 .00084506 00000-0 77136-3 0 9992 2 60246 97.2015 88.8226 0014447 290.0243 69.9462 15.67469257117836 HYPERVIEW-1G (RS66S) 1 61772U 24199AP 26230.11543498 .07890463 24672-5 93922-3 0 9997 2 61772 97.2456 114.2453 0006603 245.8477 114.2131 16.36574258144515 AO-123 1 61781U 24199AY 26235.58623147 .00007259 00000-0 20500-3 0 9995 2 61781 97.2902 103.6557 0015294 69.6812 290.6075 15.36549458144271 LASARsat 1 62391U 24247Q 26235.45734830 .00034913 00000-0 60218-3 0 9992 2 62391 44.9715 243.0248 0008006 41.3262 318.8234 15.50445924 93749 CroCube 1 62394U 24247T 26235.35906192 .00041109 00000-0 64528-3 0 9999 2 62394 44.9686 239.6311 0008124 50.5412 309.6198 15.53009612 93774 JINJUSat 1B 1 63210U 25052A 26235.50778978 .00015509 00000-0 45242-3 0 9995 2 63210 97.3905 132.4160 0003042 158.7996 201.3374 15.35433092 80427 NUSHSAT 1 1 63211U 25052B 26235.17171990 .00018043 00000-0 47784-3 0 9999 2 63211 97.3880 132.8999 0002652 155.7534 204.3836 15.38414746 80430 TEVEL2-4 1 63213U 25052D 26234.70844697 .00017147 00000-0 47900-3 0 9994 2 63213 97.3801 131.2825 0001670 162.0503 198.0800 15.36771259 80323 TEVEL2-5 1 63214U 25052E 26235.58377920 .00017757 00000-0 49877-3 0 9994 2 63214 97.3801 132.0880 0001643 161.6633 198.4671 15.36592311 80457 TEVEL2-6 1 63215U 25052F 26235.14178852 .00016718 00000-0 47054-3 0 9991 2 63215 97.3802 131.6295 0001483 160.2396 199.8906 15.36541722 80385 TEVEL2-1 1 63217U 25052H 26234.67461860 .00016613 00000-0 47710-3 0 9997 2 63217 97.3774 130.7017 0000916 187.6734 172.4496 15.35914378 80297 TEVEL2-3 1 63218U 25052J 26235.44826496 .00016417 00000-0 47005-3 0 9993 2 63218 97.3780 131.5089 0000932 170.6222 189.5039 15.36010345 80413 TEVEL2-2 1 63219U 25052K 26235.52137632 .00017088 00000-0 49001-3 0 9993 2 63219 97.3779 131.5538 0001071 187.6337 172.4890 15.35954711 80421 TEVEL2-9 1 63237U 25052AD 26235.52419767 .00015577 00000-0 47838-3 0 9992 2 63237 97.3841 130.7774 0003709 257.7225 102.3603 15.33803600 80342 TEVEL2-7 1 63238U 25052AE 26235.51388802 .00015154 00000-0 47057-3 0 9991 2 63238 97.3840 130.6525 0003641 257.9226 102.1608 15.33456949 80335 TEVEL2-8 1 63239U 25052AF 26234.67442317 .00014363 00000-0 44669-3 0 9997 2 63239 97.3835 129.7892 0003673 265.6828 94.3995 15.33420771 80206 SPIRONE 1 66657U 25274H 26235.24568117 .00001378 00000-0 13517-3 0 9991 2 66657 97.7469 163.5857 0012733 144.5569 215.6500 14.93774603 40231 K-HERO 1 66660U 25274L 26235.23202701 .00001642 00000-0 15840-3 0 9993 2 66660 97.7477 163.7819 0014542 149.3330 210.8743 14.94172908 40241 SNUGLITE-III DURI 1 66661U 25274M 26235.55344812 .00001643 00000-0 15847-3 0 9997 2 66661 97.7473 164.1198 0015219 149.6622 210.5482 14.94187309 40295 SAKHACUBE-CHOLBON 1 67290U 25313AU 26234.74122538 .00008532 00000-0 33450-3 0 9993 2 67290 97.3890 308.9782 0010616 117.9439 242.2876 15.25955575 36129 RS95S (QMR-KWT-2) 1 67291U 25313AV 26235.57438274 .00012950 00000-0 47762-3 0 9993 2 67291 97.3888 310.1421 0010193 113.9059 246.3249 15.27871851 36277 Ten-Koh2 1 68261U 25241B 26234.75996923 .00007256 00000-0 30323-3 0 9998 2 68261 51.6637 2.6025 0006440 2.6793 357.4219 15.24622203 25060 JACK-002 1 68417U 26067B 26235.45140564 .00005471 00000-0 25628-3 0 9997 2 68417 97.4621 193.2668 0003747 65.3464 294.8161 15.20115020 22160 DISCO 2 1 68431U 26067R 26235.61446296 .00007151 00000-0 33538-3 0 9998 2 68431 97.4652 193.4228 0004130 103.2280 256.9416 15.19966752 22187 HADES-SA (SpinnyONE) 1 68446U 26067AG 26234.83742461 .00016669 00000-0 75105-3 0 9990 2 68446 97.4444 192.2538 0005806 179.3528 180.7716 15.21109519 22059 PARUS-6U1 1 68456U 26067AS 26235.30021944 .00004829 00000-0 23988-3 0 9997 2 68456 97.4606 192.6822 0005465 170.2123 189.9218 15.18126905 22111 SAL-E 1 68458U 26067AU 26235.34549275 .00006239 00000-0 30470-3 0 9996 2 68458 97.4529 192.6329 0005293 178.5087 181.6164 15.18604494 22122 FSI-SAT 2 1 68792U 26088A 26235.34530747 .00003612 00000-0 24309-3 0 9990 2 68792 97.5156 22.9753 0012986 233.9177 126.0849 15.07285365 18408 OrigamiSat 2 1 68795U 26088D 26235.38267478 .00010368 00000-0 63909-3 0 9990 2 68795 97.5138 23.3851 0014484 203.3039 156.7536 15.10053413 18435 ARICA 2 1 68796U 26088E 26235.34932800 .00004005 00000-0 25750-3 0 9998 2 68796 97.5147 23.2610 0014911 203.0856 156.9704 15.08881765 18421 WASEDA-SAT-ZERO-II 1 68797U 26088F 26235.39741749 .00004806 00000-0 30489-3 0 9998 2 68797 97.5141 23.3457 0014734 201.9443 158.1157 15.09284259 18431 MANGARO-II-Piscus 1 68798U 26088G 26235.45333486 .00002706 00000-0 17367-3 0 9998 2 68798 97.5150 23.4413 0018212 206.3730 153.6573 15.09184344 18445 CO-128 1 69912U 26156AV 26235.52565090 .00001277 00000-0 13508-3 0 9994 2 69912 97.7506 135.1425 0002773 20.5623 339.5706 14.90890767 7035 MARINA 1 69920U 26156BD 26235.15342546 .00001936 00000-0 19603-3 0 9995 2 69920 97.7474 134.8434 0007774 11.5792 348.5604 14.92084912 6986 IO-86 1 40931U 26199.45381863 .00000000 00000-0 77536-4 0 07 2 40931 6.0006 322.6653 0012733 338.8432 273.6875 14.79294310 03 LILIUM-4 1 71922C 26067AC 26089.50133053 -.00014632 00000 0 -74472-3 0 04 2 71922 97.4497 49.1617 0004341 5.9603 355.7042 15.16896692 16